Regional Weather Roundup
Issued by NWS Sterling, VA

Home | Current Version | Previous Version | Graphics & Text | Print | Product List | Glossary On
Versions: 1 2 3 4 5 6 7 8 9 10 11 12 13 14 15 16 17 18 19 20 21 22 23 24 25 26 27 28 29 30 31 32 33 34 35 36 37 38 39 40 41 42 43 44 45 46 47 48 49 50
000
ASUS41 KLWX 250410
RWRLWX

REGIONAL WEATHER ROUNDUP
NATIONAL WEATHER SERVICE BALTIMORE MD/WASHINGTON DC
1200 AM EDT FRI JUL 25 2014

Note: "FAIR" indicates few or no clouds below 12,000 feet
with no significant weather and/or obstructions to visibility.
 TC=TEMPERATURE CELSIUS

 * =Non NWS site. Station does not report precipitation (e.g. rain,
    snow, etc.), thunder, or fog.

DCZ001-MDZ009-015-VAZ040>042-051-053>054-250500-
WASHINGTON METRO
  /KDAA//-FT BELVOIR

CITY           SKY/WX    TMP DP  RH WIND       PRES   REMARKS
WASHINGTON NAT MOCLDY    73  55  53 N9        29.96R
DULLES         PTCLDY    63  58  83 NW5       29.97R
ANDREWS AFB    MOCLDY    65  58  76 N7        29.95S
QUANTICO       PTCLDY    68  66  93 NW8       29.96R
COLLEGE PARK*  MOCLDY    64  64 100 CALM      29.95S
LEESBURG*      CLEAR     63  63 100 CALM      29.98R
MANASSAS*      PTCLDY    63  63 100 CALM      29.97R
GAITHERSBURG*  CLEAR     61  57  88 CALM      30.01R

$$

MDZ006>007-011-014-250500-
BALTIMORE METRO

CITY           SKY/WX    TMP DP  RH WIND       PRES   REMARKS
BWI AIRPORT    PTCLDY    66  57  72 NW5       29.95R
MD SCIENCE CTR   N/A     73  54  51 MISG      29.95S
MARTIN STATE   PTCLDY    68  55  64 NW3       29.96R
ANNAPOLIS      PTCLDY    73  60  63 N7        29.93F
FORT MEADE*    MOCLDY    61  59  94 CALM      29.97S

$$

MDZ012-015-019>023-250500-
MARYLAND EASTERN SHORE

CITY           SKY/WX    TMP DP  RH WIND       PRES   REMARKS
OCEAN CITY     CLOUDY    71  67  87 W5        29.90F
SALISBURY      NOT AVBL
BAY BRIDGE AP*   N/A     72  54  53 N6        29.93S
CAMBRIDGE*     CLOUDY    72  64  78 N3        29.92S
EASTON*        MOCLDY    71  63  76 CALM      29.96S

$$

MDZ017>025-250500-
SOUTHERN MARYLAND

CITY           SKY/WX    TMP DP  RH WIND       PRES   REMARKS
PATUXENT RIVER CLOUDY    70  66  87 W9        29.92F
ST INIGOES     CLOUDY    71  65  81 NW6       29.91F
LEONARDTOWN*   CLOUDY    68  64  88 CALM      29.94F

$$

MDZ003>005-250500-
NORTH CENTRAL MARYLAND

CITY           SKY/WX    TMP DP  RH WIND       PRES   REMARKS
FREDERICK*     CLEAR     61  61 100 CALM      30.00R
HAGERSTOWN APT CLEAR     66  54  65 CALM      29.99R
WESTMINSTER*   PTCLDY    63  61  94 CALM      29.98S

$$

MDZ501>502-250500-
WESTERN MARYLAND

CITY           SKY/WX    TMP DP  RH WIND       PRES   REMARKS
OAKLAND*       PTCLDY    57  54  88 CALM      30.10R
CUMBERLAND*    NOT AVBL

$$

VAZ025>031-250500-
SHENANDOAH VALLEY

CITY           SKY/WX    TMP DP  RH WIND       PRES   REMARKS
WINCHESTER*    CLEAR     59  57  94 CALM      30.00R
STAUNTON*      CLOUDY    67  64  91 CALM      30.04R FOG

$$

WVZ021-048>050-054>055-250500-
EASTERN WEST VIRGINIA PANHANDLE

CITY           SKY/WX    TMP DP  RH WIND       PRES   REMARKS
MARTINSBURG    CLEAR     62  56  80 W3        30.00R
PETERSBURG*    MOCLDY    62  56  82 CALM      30.05R

$$

VAZ036>039-050-250500-
CENTRAL FOOTHILLS

CITY           SKY/WX    TMP DP  RH WIND       PRES   REMARKS
CHARLOTTESVILL FOG       65  64  97 N3        29.98S VSB 1/4
ORANGE*        FOG       63  63 100 CALM      29.99R VSB 1/2

$$

VAZ055>057-250500-
NORTH AND CENTRAL PIEDMONT

CITY           SKY/WX    TMP DP  RH WIND       PRES   REMARKS
FREDERICKSBRG* PTCLDY    67  67 100 W3        29.95S FOG
STAFFORD*        N/A     64  64 100 NW6       30.00R FOG

$$

NCZ024-NYZ072-PAZ021-071-VAZ022-071-250500-
OTHER REGIONAL OBSERVATIONS

CITY           SKY/WX    TMP DP  RH WIND       PRES   REMARKS
NEW YORK CITY  MOCLDY    73  52  47 MISG      29.94S
PHILADELPHIA   PTCLDY    72  52  49 N9        29.93R
PITTSBURGH     CLEAR     62  50  64 N6        30.07R
ROANOKE        CLOUDY    69  67  93 SE3       30.04R
RICHMOND       CLOUDY    71  68  90 NW5       29.95S FOG
RALEIGH        MOCLDY    69  66  90 NE3       29.97R

$$

ANZ530>537-250500-
MARINE OBSERVATIONS

STATION/POSITION TIME  TEMP    WIND        PRES
                       AIR SEA DIR/SP/G
                 (UTC) (F)     (DEG/KT/KT) (MB)
THOMAS PT LIGHT  0400   74 79  360/ 14/ 15 1013.9S
BALT KEY BRIDGE  0400   74      10/  9/ 12 1013.6R
COVE POINT       0400   71     290/  6/  8 1013.2R
LEWISETTA        0400   70 80  310/  7/  8 1012.9S
SOLOMONS ISLAND  0400      80                N/A
PINEY POINT      0400          310/  8/  9   N/A

$$




USA.gov is the U.S. government's official web portal to all federal, state and local government web resources and services.